Weather History for KLNP - November, 2010

Change the Weather History Date:

Friday, November 12, 2010

  Actual Average Record
Temperature  
Mean Temperature 58 °F -  
Max Temperature 69 °F 51 °F 69 °F (2010)
Min Temperature 46 °F 34 °F 17 °F (1996)
Degree Days  
Heating Degree Days 8    
Growing Degree Days 8 (Base 50)    
Moisture  
Dew Point 35 °F    
Average Humidity 45    
Maximum Humidity 66    
Minimum Humidity 27    
Precipitation  
Precipitation 0.00 in - - ()
Sea Level Pressure  
Sea Level Pressure 30.35 in    
Wind  
Wind Speed 1 mph (South)    
Max Wind Speed 5 mph    
Max Gust Speed -    
Visibility 10 miles    
Events      
Averages and records for this station are not official NWS values.
T = Trace of Precipitation, MM = Missing Value Source: NWS Daily Summary

Daily Weather History Graph

Daily Weather History Graph

Search for Another Location

Airport or City:

Trip Planner

Search our weather history database for the weather conditions in past years. The results will help you decide how hot, cold, wet, or windy it might be!

Date:

Astronomy

Nov. 12, 2010 Rise Set
Actual Time 7:05 AM EST 5:22 PM EST
Civil Twilight 6:37 AM EST 5:50 PM EST
Nautical Twilight 6:06 AM EST 6:21 PM EST
Astronomical Twilight 5:36 AM EST 6:51 PM EST
Moon 12:35 PM EST (11/12) 11:27 PM EST (11/12)
Length of Visible Light 11h 12m
Length of Day
10h 17m
Waxing Crescent, 41% of the Moon is Illuminated
Nov 12
Waxing Crescent
Nov 13
First Quarter
Nov 21
Full
Nov 28
Last Quarter
Dec 5
New

Hourly Weather History & Observations

Time (EST) Temp. Windchill Dew Point Humidity Pressure Visibility Wind Dir Wind Speed Gust Speed Precip Events Conditions
12:19 AM 51.8 °F - 35.6 °F 54% 30.39 in 10.0 mi Calm Calm - N/A   Clear
12:39 AM 51.8 °F - 35.6 °F 54% 30.38 in 10.0 mi Calm Calm - N/A   Clear
12:59 AM 51.8 °F - 35.6 °F 54% 30.38 in 10.0 mi Calm Calm - N/A   Clear
1:19 AM 51.8 °F - 35.6 °F 54% 30.38 in 10.0 mi Calm Calm - N/A   Clear
1:39 AM 51.8 °F - 35.6 °F 54% 30.37 in 10.0 mi Calm Calm - N/A   Clear
1:59 AM 48.2 °F - 35.6 °F 62% 30.37 in 10.0 mi Calm Calm - N/A   Clear
2:19 AM 50.0 °F - 35.6 °F 58% 30.37 in 10.0 mi Calm Calm - N/A   Clear
2:39 AM 48.2 °F - 35.6 °F 62% 30.37 in 10.0 mi Calm Calm - N/A   Clear
2:59 AM 48.2 °F - 35.6 °F 62% 30.37 in 10.0 mi Calm Calm - N/A   Clear
3:19 AM 48.2 °F - 35.6 °F 62% 30.36 in 10.0 mi Calm Calm - N/A   Clear
3:39 AM 51.8 °F - 35.6 °F 54% 30.36 in 10.0 mi Calm Calm - N/A   Clear
3:59 AM 53.6 °F - 35.6 °F 51% 30.36 in 10.0 mi Calm Calm - N/A   Clear
4:19 AM 51.8 °F - 35.6 °F 54% 30.36 in 10.0 mi Calm Calm - N/A   Clear
4:39 AM 51.8 °F - 35.6 °F 54% 30.37 in 10.0 mi Calm Calm - N/A   Clear
4:59 AM 53.6 °F - 35.6 °F 51% 30.37 in 10.0 mi Calm Calm - N/A   Clear
5:19 AM 50.0 °F - 35.6 °F 58% 30.37 in 10.0 mi Calm Calm - N/A   Clear
5:39 AM 50.0 °F - 35.6 °F 58% 30.37 in 10.0 mi Calm Calm - N/A   Clear
5:59 AM 50.0 °F - 35.6 °F 58% 30.37 in 10.0 mi Calm Calm - N/A   Clear
6:19 AM 51.8 °F - 33.8 °F 50% 30.37 in 10.0 mi Calm Calm - N/A   Clear
6:39 AM 48.2 °F - 33.8 °F 58% 30.37 in 10.0 mi South 3.5 mph - N/A   Clear
6:59 AM 48.2 °F - 33.8 °F 58% 30.37 in 10.0 mi Calm Calm - N/A   Clear
7:19 AM 48.2 °F - 33.8 °F 58% 30.38 in 10.0 mi South 3.5 mph - N/A   Clear
7:39 AM 46.4 °F 45.2 °F 35.6 °F 66% 30.39 in 10.0 mi South 3.5 mph - N/A   Clear
7:59 AM 50.0 °F - 33.8 °F 54% 30.39 in 10.0 mi South 3.5 mph - N/A   Clear
8:19 AM 51.8 °F - 39.2 °F 62% 30.39 in 10.0 mi SW 3.5 mph - N/A   Clear
8:39 AM 55.4 °F - 39.2 °F 54% 30.39 in 10.0 mi Calm Calm - N/A   Clear
8:59 AM 57.2 °F - 39.2 °F 51% 30.39 in 10.0 mi Calm Calm - N/A   Clear
9:19 AM 59.0 °F - 37.4 °F 45% 30.39 in 10.0 mi WSW 3.5 mph - N/A   Clear
9:39 AM 59.0 °F - 37.4 °F 45% 30.39 in 10.0 mi WSW 3.5 mph - N/A   Clear
9:59 AM 60.8 °F - 37.4 °F 42% 30.40 in 10.0 mi Calm Calm - N/A   Clear
10:19 AM 62.6 °F - 37.4 °F 39% 30.40 in 10.0 mi West 4.6 mph - N/A   Clear
10:39 AM 62.6 °F - 35.6 °F 37% 30.39 in 10.0 mi West 3.5 mph - N/A   Clear
10:59 AM 64.4 °F - 37.4 °F 37% 30.39 in 10.0 mi Calm Calm - N/A   Clear
11:19 AM 66.2 °F - 37.4 °F 35% 30.39 in 10.0 mi Calm Calm - N/A   Clear
11:39 AM 66.2 °F - 37.4 °F 35% 30.38 in 10.0 mi Calm Calm - N/A   Clear
11:59 AM 68.0 °F - 35.6 °F 30% 30.37 in 10.0 mi Calm Calm - N/A   Clear
12:19 PM 68.0 °F - 35.6 °F 30% 30.36 in 10.0 mi Calm Calm - N/A   Clear
12:59 PM 69.8 °F - 35.6 °F 28% 30.35 in 10.0 mi SE 4.6 mph - N/A   Clear
1:19 PM 69.8 °F - 35.6 °F 28% 30.34 in 10.0 mi ESE 4.6 mph - N/A   Clear
1:39 PM 69.8 °F - 35.6 °F 28% 30.33 in 10.0 mi East 4.6 mph - N/A   Clear
1:59 PM 69.8 °F - 35.6 °F 28% 30.32 in 10.0 mi ESE 4.6 mph - N/A   Clear
2:19 PM 69.8 °F - 35.6 °F 28% 30.32 in 10.0 mi ESE 3.5 mph - N/A   Clear
2:39 PM 69.8 °F - 35.6 °F 28% 30.31 in 10.0 mi Calm Calm - N/A   Clear
2:59 PM 69.8 °F - 35.6 °F 28% 30.31 in 10.0 mi SSE 4.6 mph - N/A   Clear
3:19 PM 69.8 °F - 33.8 °F 27% 30.31 in 10.0 mi Calm Calm - N/A   Clear
3:39 PM 69.8 °F - 33.8 °F 27% 30.31 in 10.0 mi SSE 4.6 mph - N/A   Clear
3:59 PM 68.0 °F - 33.8 °F 28% 30.31 in 10.0 mi Calm Calm - N/A   Clear
4:19 PM 68.0 °F - 33.8 °F 28% 30.31 in 10.0 mi SSE 3.5 mph - N/A   Clear
4:39 PM 66.2 °F - 33.8 °F 30% 30.31 in 10.0 mi Calm Calm - N/A   Clear
4:59 PM 64.4 °F - 33.8 °F 32% 30.31 in 10.0 mi Calm Calm - N/A   Clear
5:19 PM 62.6 °F - 33.8 °F 34% 30.31 in 10.0 mi South 4.6 mph - N/A   Clear
5:39 PM 59.0 °F - 33.8 °F 39% 30.31 in 10.0 mi South 3.5 mph - N/A   Clear
5:59 PM 59.0 °F - 33.8 °F 39% 30.31 in 10.0 mi South 3.5 mph - N/A   Clear
6:19 PM 57.2 °F - 33.8 °F 41% 30.31 in 10.0 mi South 3.5 mph - N/A   Clear
6:39 PM 55.4 °F - 35.6 °F 47% 30.32 in 10.0 mi South 3.5 mph - N/A   Clear
6:59 PM 55.4 °F - 35.6 °F 47% 30.31 in 10.0 mi Calm Calm - N/A   Clear
7:19 PM 55.4 °F - 35.6 °F 47% 30.31 in 10.0 mi Calm Calm - N/A   Clear
7:39 PM 55.4 °F - 35.6 °F 47% 30.31 in 10.0 mi Calm Calm - N/A   Clear
7:59 PM 55.4 °F - 35.6 °F 47% 30.31 in 10.0 mi Calm Calm - N/A   Clear
8:19 PM 55.4 °F - 33.8 °F 44% 30.31 in 10.0 mi Calm Calm - N/A   Clear
8:39 PM 55.4 °F - 33.8 °F 44% 30.31 in 10.0 mi SSW 3.5 mph - N/A   Clear
8:59 PM 53.6 °F - 35.6 °F 51% 30.31 in 10.0 mi South 4.6 mph - N/A   Clear
9:19 PM 51.8 °F - 35.6 °F 54% 30.31 in 10.0 mi South 4.6 mph - N/A   Clear
9:39 PM 51.8 °F - 35.6 °F 54% 30.31 in 10.0 mi South 4.6 mph - N/A   Clear
9:59 PM 51.8 °F - 35.6 °F 54% 30.31 in 10.0 mi SW 4.6 mph - N/A   Clear
10:39 PM 51.8 °F - 33.8 °F 50% 30.30 in 10.0 mi SW 4.6 mph - N/A   Clear
10:59 PM 51.8 °F - 33.8 °F 50% 30.30 in 10.0 mi SSW 3.5 mph - N/A   Clear
11:19 PM 50.0 °F - 33.8 °F 54% 30.30 in 10.0 mi SSW 3.5 mph - N/A   Clear
11:39 PM 51.8 °F - 35.6 °F 54% 30.29 in 10.0 mi SSW 5.8 mph - N/A   Clear
11:59 PM 48.2 °F - 35.6 °F 62% 30.29 in 10.0 mi SSW 4.6 mph - N/A   Clear